Prairietown, Illinois
Current Conditions -  °F | °C
As of 1:50 PM on Tuesday 21 Oct 2014 (Local Time) from KALN Reporting Station
Clear Clear  
Wind Chill: 64°   Ceiling: Unl
Heat Index: 64°   Visibility: 10mi
Dew Point: 39°   Wind: 12mph
Humidity: 40%   Direction: 360°N
Pressure: 30.11"   Gusts: NA
Location:  38.9557°N, 89.8642°W
Report Text: KALN 211850Z 36010KT 10SM SKC 18/04 A3011
Loading
Personal Weather Stations






























Interactive Weather Map
Tropical Storm Tracking
New forecast layout! Learn more

10-Day Weather Forecast

Advertisements
Track Severe Weather on mobile